Time,TemperatureF,DewpointF,PressureIn,WindDirection,WindDirectionDegrees,WindSpeedMPH,WindSpeedGustMPH,Humidity,HourlyPrecipIn,Conditions,Clouds,dailyrainin,SolarRadiationWatts/m^2,SoftwareType,DateUTC
2015-01-27 00:12:00,55.7,50.0,29.97,North,355,0.0,3.0,81,0.00,,,0.01,0,weatherlink.com 1.10,2015-01-27 05:12:00,
2015-01-27 00:26:00,55.6,50.0,29.97,ENE,57,1.0,2.0,81,0.00,,,0.01,0,weatherlink.com 1.10,2015-01-27 05:26:00,
2015-01-27 00:41:00,55.3,50.0,29.97,WSW,238,0.0,3.0,81,0.00,,,0.01,0,weatherlink.com 1.10,2015-01-27 05:41:00,
2015-01-27 00:56:00,55.0,49.0,29.98,WSW,240,0.0,2.0,81,0.00,,,0.01,0,weatherlink.com 1.10,2015-01-27 05:56:00,
2015-01-27 01:11:00,54.7,49.0,29.97,SW,230,0.0,2.0,82,0.00,,,0.01,0,weatherlink.com 1.10,2015-01-27 06:11:00,
2015-01-27 01:26:00,54.3,49.0,29.98,SSW,211,0.0,2.0,83,0.00,,,0.01,0,weatherlink.com 1.10,2015-01-27 06:26:00,
2015-01-27 01:41:00,53.8,49.0,29.97,SSW,211,0.0,1.0,83,0.00,,,0.00,0,weatherlink.com 1.10,2015-01-27 06:41:00,
2015-01-27 01:56:00,53.2,49.0,29.96,SSW,211,0.0,1.0,84,0.00,,,0.00,0,weatherlink.com 1.10,2015-01-27 06:56:00,
2015-01-27 02:11:00,52.6,48.0,29.96,SSW,211,0.0,2.0,85,0.00,,,0.00,0,weatherlink.com 1.10,2015-01-27 07:11:00,
2015-01-27 02:26:00,52.2,48.0,29.96,SSW,211,0.0,1.0,85,0.00,,,0.00,0,weatherlink.com 1.10,2015-01-27 07:26:00,
2015-01-27 02:41:00,52.0,48.0,29.96,SSW,211,0.0,1.0,86,0.00,,,0.00,0,weatherlink.com 1.10,2015-01-27 07:41:00,
2015-01-27 02:56:00,51.7,48.0,29.96,SSW,211,0.0,2.0,86,0.00,,,0.00,0,weatherlink.com 1.10,2015-01-27 07:56:00,
2015-01-27 03:12:00,51.6,48.0,29.96,SSW,211,0.0,1.0,86,0.00,,,0.00,0,weatherlink.com 1.10,2015-01-27 08:12:00,
2015-01-27 03:26:00,51.4,48.0,29.96,SSW,211,2.0,2.0,87,0.00,,,0.00,0,weatherlink.com 1.10,2015-01-27 08:26:00,
2015-01-27 03:42:00,51.2,48.0,29.96,SW,214,0.0,3.0,87,0.00,,,0.00,0,weatherlink.com 1.10,2015-01-27 08:42:00,
2015-01-27 03:57:00,51.0,47.0,29.97,SW,215,1.0,2.0,87,0.00,,,0.00,0,weatherlink.com 1.10,2015-01-27 08:57:00,
2015-01-27 04:12:00,50.9,47.0,29.97,SW,217,0.0,2.0,87,0.00,,,0.00,0,weatherlink.com 1.10,2015-01-27 09:12:00,
2015-01-27 04:27:00,50.7,47.0,29.97,SW,218,0.0,4.0,88,0.00,,,0.00,0,weatherlink.com 1.10,2015-01-27 09:27:00,
2015-01-27 04:42:00,50.6,47.0,29.97,SW,218,0.0,1.0,87,0.00,,,0.00,0,weatherlink.com 1.10,2015-01-27 09:42:00,
2015-01-27 04:57:00,50.5,47.0,29.97,SW,223,0.0,2.0,88,0.00,,,0.00,0,weatherlink.com 1.10,2015-01-27 09:57:00,
2015-01-27 05:12:00,50.4,47.0,29.98,SW,223,0.0,2.0,88,0.00,,,0.00,0,weatherlink.com 1.10,2015-01-27 10:12:00,
2015-01-27 05:27:00,50.2,47.0,29.98,SW,223,1.0,2.0,88,0.00,,,0.00,0,weatherlink.com 1.10,2015-01-27 10:27:00,
2015-01-27 05:42:00,50.1,47.0,29.98,SW,223,0.0,2.0,88,0.00,,,0.00,0,weatherlink.com 1.10,2015-01-27 10:42:00,
2015-01-27 05:57:00,49.8,46.0,29.99,SW,223,0.0,1.0,88,0.00,,,0.00,0,weatherlink.com 1.10,2015-01-27 10:57:00,
2015-01-27 06:12:00,49.6,46.0,30.00,SW,223,1.0,1.0,88,0.00,,,0.00,0,weatherlink.com 1.10,2015-01-27 11:12:00,
2015-01-27 06:27:00,49.6,46.0,30.01,SW,223,0.0,1.0,88,0.00,,,0.00,0,weatherlink.com 1.10,2015-01-27 11:27:00,
2015-01-27 06:42:00,49.5,46.0,30.02,SW,236,0.0,2.0,88,0.00,,,0.00,0,weatherlink.com 1.10,2015-01-27 11:42:00,
2015-01-27 06:57:00,49.6,46.0,30.02,WNW,298,0.0,4.0,88,0.00,,,0.00,0,weatherlink.com 1.10,2015-01-27 11:57:00,
2015-01-27 07:12:00,49.8,46.0,30.02,NW,326,1.0,2.0,88,0.00,,,0.00,5,weatherlink.com 1.10,2015-01-27 12:12:00,
2015-01-27 07:27:00,49.9,47.0,30.03,NNW,331,3.0,4.0,88,0.00,,,0.00,19,weatherlink.com 1.10,2015-01-27 12:27:00,
2015-01-27 07:42:00,50.8,47.0,30.03,NNW,344,2.0,4.0,88,0.00,,,0.00,70,weatherlink.com 1.10,2015-01-27 12:42:00,